Location: Kershaw
(34.5481°N, 80.5823°W)
Time: 15:55:39
(UTC+00:00)

Vanguard 1 Rocket - Pass Details

Date: 03 October 2022
Orbit: 650 x 4225 km, 34.3° (Epoch: 08 December)

Event Time Altitude Azimuth Distance (km) Brightness Sun altitude
Rises 22:56:48 0° 224° (SW) 8,438 13.2 0.6°
Reaches altitude 10° 23:03:00 10° 220° (SW) 7,414 12.8 -0.7°
Maximum altitude 23:26:51 54° 152° (SSE) 3,832 10.4 -5.6°
Drops below altitude 10° 23:41:28 10° 80° (E) 4,830 10.4 -8.6°
Enters shadow 23:41:51 - 80° (E) 4,905 10.5 -8.7°
Sets 23:44:29 0° 76° (ENE) 5,459 - -9.3°
